Wind_Speed
38 40 43 50 56 62 67 71 76 82 88 88 90 91 85 84 81 78 79 82 75 77 77 78 77 78 77 74 75 76 75 74 75 75 81 81 77 74 80 76 76 74 80 78 78
40 39 43 48 56 61 67 73 73 77 84 89 89 92 91 88 84 81 81 78 76 77 73 77 79 78 76 76 75 76 72 69 74 78 77 77 76 77 77 75 80 79 79 78 79
44 39 41 47 54 62 66 71 76 76 77 83 91 91 92 93 87 88 82 81 77 77 76 73 72 73 73 75 72 70 66 69 73 74 73 72 72 74 74 72 74 72 74 70 68
52 44 41 45 52 59 65 72 77 79 79 82 82 91 91 91 91 91 86 81 79 78 75 74 74 73 73 70 68 68 66 67 72 71 68 70 69 67 66 68 68 68 69 67 70
53 52 47 44 51 55 62 70 76 80 83 81 83 82 87 90 90 93 94 89 85 81 78 77 74 73 72 72 72 69 68 71 72 71 72 72 68 68 65 66 68 69 68 69 68
62 56 52 50 47 55 59 65 73 78 82 84 85 84 82 85 87 92 93 92 91 86 84 78 79 77 77 75 74 72 71 71 70 73 77 73 69 68 62 68 69 66 63 67 70
74 62 53 51 52 50 58 60 66 73 77 81 86 87 81 85 85 92 90 90 92 93 90 86 83 81 77 76 73 72 73 74 72 75 75 77 70 64 66 70 64 66 63 63 65
66 69 68 56 55 53 54 59 60 66 72 77 81 84 82 83 85 87 87 89 89 89 91 92 88 86 83 79 78 81 78 80 79 78 76 78 74 74 65 64 61 63 60 58 62
64 63 68 71 55 57 54 59 58 63 69 72 76 79 82 83 82 84 85 86 85 88 89 85 86 85 86 86 83 81 81 81 81 80 79 79 75 75 65 65 61 58 59 60 59
65 59 55 59 55 53 56 57 61 62 65 68 70 72 78 79 81 81 82 83 88 87 86 84 85 86 85 85 86 90 87 86 85 82 83 79 73 72 68 65 65 61 63 66 64
66 58 50 46 46 45 54 59 60 62 62 54 60 70 76 80 84 82 80 80 85 84 84 82 82 82 90 88 86 84 84 84 85 85 83 82 76 72 72 68 72 69 65 64 69
67 56 46 37 37 38 47 59 62 60 56 51 61 59 71 80 79 85 82 82 80 84 77 75 78 89 86 84 86 87 86 86 85 86 82 82 76 76 75 72 72 74 69 68 69
65 51 41 33 27 32 41 60 59 60 53 54 56 58 67 70 73 82 86 81 80 78 79 79 79 80 80 83 88 89 88 89 87 86 86 83 76 77 72 73 73 71 72 72 73
60 49 39 30 22 28 41 50 60 57 57 55 53 49 53 57 68 74 78 87 82 78 78 77 74 80 80 81 80 83 87 87 85 84 83 80 75 75 76 73 74 77 76 77 77
58 49 37 27 21 25 36 49 55 59 60 57 50 49 47 43 49 59 68 78 84 85 79 78 76 74 76 82 81 80 80 85 87 85 83 82 78 69 77 77 78 80 81 81 83
56 46 34 23 17 21 33 41 45 58 60 53 42 43 40 38 39 46 55 65 74 79 77 77 74 74 75 75 77 79 84 84 83 84 81 81 80 64 75 80 84 87 86 87 90
53 40 29 19 10 16 26 34 45 58 48 49 44 40 40 39 38 39 44 50 56 63 64 67 69 67 66 64 66 68 73 78 80 79 80 83 79 73 79 84 86 90 94 97 97
47 36 25 11 5 14 27 34 36 42 54 48 44 38 37 36 33 35 38 39 41 43 46 50 50 50 53 53 53 56 60 67 68 73 78 82 79 80 84 87 93 95 101 105 105
44 32 19 7 3 11 21 29 34 38 53 51 42 37 33 29 33 34 33 33 32 33 33 34 37 40 43 45 48 53 58 62 64 69 70 73 78 84 92 96 101 100 100 102 107
40 27 17 9 6 16 19 20 32 47 59 49 42 37 31 32 34 32 29 30 29 27 27 31 33 33 37 40 44 46 54 56 59 61 65 69 75 83 89 94 84 86 93 94 94
38 24 16 11 8 10 16 33 44 53 56 47 41 34 30 36 34 31 28 26 27 29 31 31 33 38 42 42 42 40 40 38 36 39 42 48 57 65 75 74 80 89 90 90 92
38 23 17 11 13 15 20 34 46 53 50 44 37 29 29 32 29 27 26 27 28 28 29 31 34 31 21 20 16 17 20 25 33 40 44 51 51 64 64 65 69 70 75 72 70
38 26 20 14 14 21 30 37 48 49 43 38 31 28 32 31 27 27 25 21 20 20 22 20 19 16 13 9 13 17 23 26 26 30 26 30 35 47 51 53 57 57 58 56 53
36 27 21 11 11 18 35 40 41 41 39 30 26 30 31 29 26 24 20 19 18 17 16 15 11 9 9 10 14 14 14 16 15 14 16 30 21 38 44 46 44 40 36 39 42
32 26 19 8 8 19 34 40 40 35 32 27 26 31 31 29 26 24 19 18 18 16 13 10 9 8 11 9 7 8 3 6 13 13 16 25 28 22 22 25 24 25 24 25 26
34 22 14 5 5 16 29 33 36 34 30 26 26 30 32 31 28 26 21 18 17 14 10 8 8 11 10 12 15 5 4 2 16 12 18 23 27 21 26 28 25 23 18 13 12
33 24 12 2 6 14 28 37 36 34 29 26 25 29 32 30 28 25 22 20 17 13 10 11 10 10 11 16 12 8 6 7 16 12 24 23 24 21 24 31 28 28 27 17 4
Wind_Direction
300 283 265 253 247 242 239 235 233 233 232 231 230 228 229 231 231 231 232 233 230 232 234 235 235 238 238 240 242 243 244 244 247 249 250 250 249 250 249 251 252 256 257 257 256
305 287 273 258 249 246 240 238 236 235 232 232 229 230 228 227 229 228 231 230 230 230 230 232 233 234 238 240 242 243 245 246 248 248 251 253 252 253 253 255 255 258 260 260 259
313 293 278 264 254 245 241 239 237 237 235 231 233 231 229 228 226 227 228 228 229 229 230 230 231 234 237 238 239 242 242 243 247 251 254 255 256 256 257 259 259 260 262 261 261
314 303 284 268 257 250 243 237 234 236 235 232 231 232 230 230 227 230 228 228 228 228 229 231 231 233 235 236 238 239 241 244 248 251 254 255 256 256 257 257 260 258 259 260 264
313 303 292 275 261 252 246 240 234 233 234 231 231 231 232 230 228 229 230 228 228 227 228 228 230 233 235 236 238 240 243 245 248 251 251 253 256 257 258 260 261 262 264 265 268
314 304 292 283 266 254 247 241 237 232 232 231 228 230 230 230 229 230 230 229 230 229 229 229 229 229 232 233 237 239 241 244 245 248 249 251 252 259 262 260 261 266 268 270 273
315 306 292 279 272 258 249 242 237 233 230 228 228 227 228 227 231 230 229 230 231 232 231 231 230 230 231 233 235 237 238 241 244 248 252 255 254 255 258 264 264 266 267 268 267
311 302 295 282 272 263 249 241 237 232 231 228 227 225 226 226 228 230 229 230 231 232 233 234 235 236 237 239 238 238 241 244 245 248 251 255 257 259 259 259 260 261 259 259 260
314 297 289 287 275 261 251 241 233 231 228 229 227 225 224 224 226 230 230 230 232 233 234 234 237 237 238 240 241 242 242 244 247 250 252 256 259 262 259 257 258 256 257 253 255
318 305 293 282 278 259 250 240 232 229 226 226 225 224 223 222 224 227 229 229 231 233 234 236 238 238 239 241 242 241 243 247 250 252 255 256 257 258 259 259 261 257 260 254 252
322 313 303 287 273 259 245 235 232 228 226 223 223 222 222 220 222 224 224 225 229 232 234 236 238 240 238 240 242 244 244 246 248 251 252 254 256 259 261 260 261 261 262 258 252
326 318 312 300 277 256 237 236 227 228 223 217 220 218 222 221 220 222 224 227 231 232 230 232 235 238 240 241 243 242 244 247 249 251 253 255 255 258 260 262 262 263 261 255 254
329 324 319 308 279 248 230 228 227 224 220 213 217 215 220 221 223 224 221 225 228 229 231 235 235 237 239 242 243 244 246 248 250 252 253 255 256 256 260 261 261 260 260 256 254
332 329 322 308 275 242 222 223 224 220 216 214 214 214 219 223 225 226 223 223 228 232 235 237 239 239 240 241 241 244 245 248 250 252 253 256 255 260 261 260 261 262 261 260 259
337 331 323 304 271 233 221 215 219 216 214 211 211 213 216 217 223 227 228 225 226 231 236 238 239 240 242 241 240 242 245 247 249 250 254 258 258 256 263 263 263 263 262 262 261
339 334 326 304 270 223 215 217 214 216 213 208 209 214 217 221 225 223 224 226 226 228 231 236 238 238 239 243 243 244 244 246 249 251 253 256 261 258 261 262 262 264 263 263 263
342 339 332 318 270 219 212 209 208 212 207 203 206 212 216 222 228 223 221 222 224 226 228 232 235 238 240 243 246 246 247 247 249 251 253 254 257 261 261 262 264 265 265 264 264
348 348 341 329 247 201 196 201 204 204 196 201 206 212 217 222 226 218 215 215 217 220 223 228 232 234 237 240 244 245 246 248 250 253 255 258 259 259 262 265 265 263 264 265 267
356 359 347 346 143 185 188 192 196 188 188 201 206 212 216 224 215 204 201 201 205 211 216 223 230 233 238 242 244 247 249 253 256 257 257 260 263 262 263 264 262 264 264 264 265
3 7 11 30 114 158 181 180 167 174 188 199 205 208 210 209 195 192 194 198 203 207 212 219 225 234 239 241 245 248 252 254 258 260 263 263 264 264 265 265 269 268 266 265 262
10 9 33 71 127 155 158 155 166 172 183 195 203 209 208 198 188 190 194 198 203 210 218 225 231 238 245 250 255 251 253 256 258 263 268 268 273 274 270 272 273 270 269 269 268
15 16 31 69 105 118 153 168 167 169 181 191 198 200 199 194 188 191 200 205 212 219 229 236 241 243 225 209 217 244 257 271 275 277 280 279 279 275 284 283 281 282 281 278 272
19 16 32 64 106 141 153 161 162 169 179 189 194 192 188 183 185 195 197 201 210 217 216 210 199 187 188 212 245 263 272 277 281 283 292 307 305 290 291 287 288 283 283 281 271
18 16 28 50 126 157 154 157 162 168 178 184 187 182 180 179 186 192 198 200 193 185 178 177 181 196 221 246 264 263 253 245 275 287 312 308 314 300 294 306 308 306 298 285 278
11 14 20 43 149 161 162 161 164 170 175 181 181 180 180 180 187 190 186 185 185 184 190 196 205 228 241 223 216 214 8 348 330 302 317 341 337 337 357 357 340 314 309 300 281
6 13 13 47 149 163 163 166 170 171 177 180 180 182 184 186 193 195 192 194 198 205 208 218 229 240 214 178 188 174 209 5 3 333 356 360 345 6 25 13 15 15 356 319 307
4 1 5 21 172 170 170 171 176 180 185 184 181 186 188 193 197 199 203 208 211 215 222 220 233 211 182 176 168 180 193 36 8 22 25 12 5 11 25 26 20 30 36 44 83
Height
10525 10521 10520 10522 10523 10525 10530 10536 10544 10553 10561 10571 10580 10589 10600 10609 10618 10627 10634 10641 10656 10658 10669 10675 10679 10685 10693 10700 10707 10714 10725 10730 10728 10732 10727 10743 10755 10759 10756 10762 10762 10762 10759 10775 10777
10513 10508 10506 10505 10506 10509 10513 10518 10525 10533 10542 10553 10560 10571 10582 10593 10605 10615 10620 10630 10638 10644 10654 10660 10666 10673 10682 10686 10696 10702 10712 10714 10713 10718 10723 10731 10740 10743 10747 10748 10751 10750 10751 10756 10764
10500 10495 10490 10489 10489 10490 10495 10500 10506 10514 10522 10534 10544 10552 10563 10575 10591 10595 10608 10615 10624 10631 10638 10646 10654 10662 10669 10675 10683 10689 10699 10697 10699 10705 10712 10716 10725 10728 10736 10737 10734 10740 10740 10745 10747
10483 10479 10476 10472 10471 10472 10475 10480 10486 10494 10503 10513 10524 10534 10546 10558 10572 10580 10592 10603 10611 10619 10627 10634 10642 10649 10654 10663 10669 10676 10683 10687 10687 10694 10700 10702 10710 10718 10721 10721 10724 10726 10728 10733 10728
10470 10461 10456 10455 10452 10452 10455 10460 10466 10473 10482 10492 10504 10516 10528 10541 10555 10562 10573 10587 10595 10605 10612 10619 10628 10635 10644 10651 10657 10665 10671 10674 10678 10685 10685 10689 10698 10703 10709 10712 10705 10714 10716 10717 10715
10452 10444 10437 10433 10434 10432 10435 10439 10445 10452 10461 10471 10484 10497 10511 10526 10540 10543 10554 10570 10580 10592 10599 10607 10615 10622 10631 10641 10648 10653 10659 10662 10666 10668 10670 10680 10687 10694 10696 10691 10699 10702 10703 10701 10706
10425 10421 10417 10413 10410 10414 10414 10418 10424 10433 10441 10451 10464 10478 10495 10505 10521 10526 10541 10553 10564 10575 10584 10591 10601 10610 10621 10626 10637 10642 10644 10647 10655 10655 10661 10664 10679 10684 10680 10684 10688 10690 10693 10692 10691
10414 10396 10386 10392 10390 10391 10396 10399 10406 10414 10422 10432 10445 10460 10479 10491 10502 10510 10525 10536 10549 10558 10567 10576 10588 10597 10606 10616 10622 10622 10631 10634 10636 10642 10648 10654 10668 10664 10673 10671 10675 10678 10682 10683 10681
10398 10384 10368 10355 10368 10369 10375 10382 10388 10394 10404 10413 10429 10443 10458 10474 10488 10499 10511 10522 10535 10542 10551 10565 10574 10585 10593 10599 10606 10610 10618 10619 10624 10629 10635 10643 10653 10648 10660 10657 10663 10668 10670 10671 10670
10369 10358 10349 10339 10340 10348 10353 10363 10370 10376 10384 10396 10414 10430 10448 10459 10474 10484 10497 10510 10518 10526 10538 10552 10562 10569 10578 10584 10590 10590 10602 10608 10612 10618 10622 10631 10638 10637 10642 10648 10650 10655 10655 10656 10658
10344 10333 10326 10320 10320 10326 10334 10341 10354 10361 10372 10396 10406 10416 10426 10441 10454 10468 10484 10493 10504 10515 10529 10539 10550 10555 10555 10567 10573 10585 10591 10594 10596 10601 10610 10614 10625 10628 10627 10635 10631 10638 10642 10643 10645
10323 10312 10305 10302 10300 10306 10314 10324 10332 10349 10365 10380 10385 10407 10412 10427 10442 10454 10472 10484 10494 10504 10515 10524 10533 10533 10547 10556 10561 10570 10573 10578 10583 10588 10598 10599 10613 10613 10614 10620 10622 10621 10625 10625 10626
10306 10297 10289 10285 10285 10289 10299 10303 10320 10336 10355 10367 10377 10391 10400 10417 10431 10443 10459 10471 10482 10493 10503 10512 10518 10526 10534 10542 10548 10553 10561 10565 10572 10575 10581 10588 10601 10599 10606 10605 10603 10604 10605 10606 10609
10294 10284 10277 10274 10273 10275 10280 10296 10306 10327 10343 10355 10371 10386 10395 10411 10420 10432 10447 10460 10473 10484 10491 10502 10509 10515 10522 10527 10531 10539 10547 10553 10555 10558 10566 10573 10586 10589 10590 10592 10589 10584 10587 10589 10591
10284 10273 10266 10263 10261 10265 10272 10281 10296 10314 10330 10348 10363 10377 10389 10404 10414 10424 10436 10446 10458 10469 10480 10488 10494 10504 10509 10512 10523 10527 10534 10535 10541 10546 10553 10557 10564 10589 10575 10575 10572 10570 10568 10569 10569
10276 10264 10257 10254 10253 10258 10265 10276 10293 10307 10323 10346 10364 10374 10386 10397 10405 10413 10424 10433 10445 10458 10468 10477 10484 10489 10495 10503 10510 10515 10518 10522 10529 10535 10543 10543 10547 10580 10561 10555 10549 10548 10550 10551 10548
10272 10261 10253 10250 10251 10255 10263 10275 10290 10303 10330 10347 10360 10370 10380 10389 10397 10406 10414 10424 10435 10445 10456 10463 10470 10478 10486 10493 10497 10503 10506 10511 10516 10525 10533 10531 10538 10550 10539 10535 10535 10530 10526 10521 10525
10272 10261 10254 10252 10252 10256 10263 10276 10290 10304 10331 10346 10357 10368 10379 10387 10396 10403 10410 10421 10430 10439 10446 10454 10462 10470 10476 10482 10488 10493 10496 10498 10509 10514 10517 10516 10528 10527 10517 10519 10510 10506 10500 10499 10499
10276 10266 10259 10255 10257 10263 10270 10280 10291 10312 10333 10343 10357 10368 10378 10387 10395 10400 10408 10417 10425 10433 10442 10451 10457 10464 10469 10476 10481 10483 10488 10493 10497 10498 10505 10508 10506 10504 10492 10487 10476 10476 10479 10481 10464
10282 10273 10267 10263 10264 10269 10274 10283 10298 10315 10333 10347 10358 10366 10376 10383 10392 10399 10408 10415 10423 10432 10441 10447 10452 10459 10463 10467 10473 10479 10479 10482 10485 10490 10489 10490 10486 10480 10467 10459 10469 10459 10447 10444 10439
10290 10279 10275 10274 10272 10275 10282 10292 10303 10319 10336 10349 10359 10367 10375 10383 10391 10399 10407 10416 10424 10431 10436 10443 10449 10453 10455 10463 10468 10469 10471 10473 10475 10474 10475 10475 10470 10461 10447 10448 10441 10424 10422 10420 10410
10298 10290 10283 10283 10282 10285 10292 10298 10308 10324 10339 10350 10360 10369 10378 10386 10394 10402 10408 10415 10421 10427 10433 10438 10442 10447 10454 10457 10461 10461 10464 10466 10466 10464 10463 10457 10458 10433 10430 10421 10410 10401 10389 10384 10380
10305 10300 10294 10291 10292 10294 10298 10307 10317 10330 10343 10354 10362 10370 10378 10386 10395 10402 10408 10414 10420 10424 10429 10434 10439 10445 10449 10453 10455 10457 10458 10458 10457 10455 10449 10443 10437 10421 10414 10403 10390 10382 10372 10362 10358
10311 10310 10304 10304 10303 10304 10307 10317 10327 10337 10347 10357 10364 10372 10380 10388 10395 10402 10408 10413 10418 10423 10428 10433 10437 10441 10445 10448 10450 10451 10452 10453 10452 10448 10444 10434 10432 10412 10402 10390 10377 10366 10354 10344 10338
10324 10317 10314 10312 10313 10315 10317 10325 10334 10344 10352 10359 10365 10374 10382 10389 10396 10402 10408 10413 10418 10423 10427 10432 10435 10438 10441 10443 10445 10446 10447 10448 10447 10444 10438 10429 10418 10405 10392 10380 10366 10353 10341 10333 10327
10331 10326 10324 10321 10323 10326 10330 10337 10343 10348 10354 10361 10368 10375 10383 10389 10395 10401 10407 10412 10417 10421 10426 10429 10432 10434 10436 10440 10442 10444 10445 10445 10443 10439 10432 10421 10410 10398 10384 10375 10361 10349 10339 10331 10325
10336 10334 10330 10328 10328 10334 10338 10340 10347 10352 10358 10364 10370 10376 10381 10388 10394 10401 10406 10410 10415 10420 10423 10426 10429 10431 10433 10437 10439 10442 10443 10441 10439 10435 10427 10419 10408 10395 10383 10374 10366 10354 10345 10337 10330